Location: Kellogg
(38.0159°N, 90.0546°W)
Time: 22:20:33
(UTC+00:00)

Transit 4A - Pass Details

Date: 19 September 2024
Orbit: 864 x 978 km, 66.8° (Epoch: 12 October)

Event Time Altitude Azimuth Distance (km) Brightness Sun altitude
Rises 17:46:55 0° 324° (NW) 3,623 10.7 53.0°
Reaches altitude 10° 17:49:35 10° 317° (NW) 2,689 10.2 53.1°
Maximum altitude 17:55:22 40° 250° (WSW) 1,399 9.6 53.1°
Drops below altitude 10° 18:01:13 10° 183° (S) 2,714 11.2 53.0°
Sets 18:03:55 0° 176° (S) 3,660 11.6 53.0°
